Language: 


Des rapports , des résumés tant et plus, au choix de chacun....


Données statistiques de la station
Quotidien Rapport Juillet 4, 2017 Unités:  Métrique    Anglais   les deux
« Précédent Jour
Suivant Jour »
Quotidien Hebdomadaire Mensuel Annuel Actuel
  Haut: Bas: Moyen:
Température: 28.8 °C 13.6 °C 19.9 °C
Pt de rosée: 19.0 °C 13.0 °C 15.5 °C
Humidité: 97 % 45 % 77 %
Vitesse du vent: 12.2 km/h 0.0 km/h 3.4 km/h
Rafales: 15.8 km/h - -
Vent:- - SW
Pression: 1021.9 hPa 1018.2 hPa -
Précipitation: 0.0 mm    
Historical Graphs
 
 
Données statistiques pour Juillet 4, 2017
Heure Température Point de rosée Pression Vent Vitesse du vent Refales Humidité Pluie (taux horaire)
00:02 16.1 °C 14.0 °C 1020.9 hPa Calm   12.6 km/h 89 % 0.0 mm
00:08 16.1 °C 14.0 °C 1020.9 hPa WSW 12.2 km/h 15.8 km/h 90 % 0.0 mm
00:13 16.2 °C 15.0 °C 1020.9 hPa WSW 9.3 km/h 15.8 km/h 90 % 0.0 mm
00:18 16.2 °C 15.0 °C 1020.9 hPa SW 6.9 km/h 13.7 km/h 90 % 0.0 mm
00:23 16.2 °C 15.0 °C 1020.9 hPa WSW 9.3 km/h 15.8 km/h 90 % 0.0 mm
00:28 16.1 °C 14.0 °C 1020.9 hPa WSW 9.7 km/h 15.8 km/h 90 % 0.0 mm
00:33 16.1 °C 14.0 °C 1020.9 hPa WSW 11.9 km/h 15.8 km/h 90 % 0.0 mm
00:38 15.9 °C 15.0 °C 1020.9 hPa West 9.0 km/h 13.7 km/h 91 % 0.0 mm
00:43 15.8 °C 14.0 °C 1020.9 hPa WSW 6.4 km/h 11.9 km/h 91 % 0.0 mm
00:48 15.7 °C 14.0 °C 1021.9 hPa Calm   10.5 km/h 91 % 0.0 mm
00:53 15.5 °C 14.0 °C 1021.9 hPa SW 9.3 km/h 11.1 km/h 91 % 0.0 mm
00:58 15.4 °C 14.0 °C 1021.9 hPa WSW 7.9 km/h 11.1 km/h 91 % 0.0 mm
01:03 15.3 °C 14.0 °C 1020.9 hPa WSW 6.9 km/h 9.7 km/h 92 % 0.0 mm
01:08 15.2 °C 14.0 °C 1020.9 hPa West 6.1 km/h 9.3 km/h 92 % 0.0 mm
01:13 15.1 °C 14.0 °C 1020.9 hPa WSW 9.7 km/h 10.5 km/h 92 % 0.0 mm
01:18 15.0 °C 14.0 °C 1020.9 hPa WSW 5.5 km/h 10.5 km/h 92 % 0.0 mm
01:23 14.8 °C 13.0 °C 1020.9 hPa WSW 6.1 km/h 9.7 km/h 92 % 0.0 mm
01:28 14.7 °C 14.0 °C 1020.9 hPa SW 6.9 km/h 7.9 km/h 93 % 0.0 mm
01:33 14.6 °C 14.0 °C 1020.9 hPa Calm   7.9 km/h 93 % 0.0 mm
01:38 14.5 °C 14.0 °C 1020.9 hPa Calm   8.7 km/h 93 % 0.0 mm
01:43 14.5 °C 14.0 °C 1020.9 hPa Calm   9.0 km/h 93 % 0.0 mm
01:48 14.6 °C 14.0 °C 1020.9 hPa SSW 4.3 km/h 9.7 km/h 94 % 0.0 mm
01:54 14.5 °C 14.0 °C 1020.9 hPa WSW 8.7 km/h 9.7 km/h 94 % 0.0 mm
01:59 14.5 °C 14.0 °C 1020.9 hPa WSW 9.3 km/h 9.7 km/h 94 % 0.0 mm
02:04 14.5 °C 14.0 °C 1020.9 hPa WSW 7.2 km/h 9.7 km/h 94 % 0.0 mm
02:09 14.5 °C 14.0 °C 1020.9 hPa WSW 4.7 km/h 10.1 km/h 94 % 0.0 mm
02:14 14.5 °C 14.0 °C 1020.9 hPa WSW 6.1 km/h 10.1 km/h 94 % 0.0 mm
02:19 14.5 °C 14.0 °C 1019.9 hPa WSW 8.7 km/h 10.1 km/h 95 % 0.0 mm
02:20 14.5 °C 14.0 °C 1019.9 hPa WSW 7.9 km/h 10.1 km/h 95 % 0.0 mm
02:25 14.5 °C 14.0 °C 1019.9 hPa WSW 9.0 km/h 10.1 km/h 95 % 0.0 mm
02:30 14.5 °C 14.0 °C 1019.9 hPa Calm   9.3 km/h 95 % 0.0 mm
02:35 14.4 °C 14.0 °C 1019.9 hPa WSW 6.1 km/h 9.7 km/h 95 % 0.0 mm
02:41 14.3 °C 14.0 °C 1019.9 hPa Calm   9.7 km/h 95 % 0.0 mm
02:46 14.3 °C 14.0 °C 1019.9 hPa WSW 4.3 km/h 8.7 km/h 95 % 0.0 mm
02:51 14.2 °C 14.0 °C 1020.9 hPa Calm   6.1 km/h 95 % 0.0 mm
02:56 14.1 °C 13.0 °C 1020.9 hPa Calm   6.1 km/h 94 % 0.0 mm
03:01 14.0 °C 13.0 °C 1019.9 hPa SSW 1.8 km/h 5.5 km/h 94 % 0.0 mm
03:06 13.9 °C 13.0 °C 1019.9 hPa Calm   6.4 km/h 95 % 0.0 mm
03:11 13.8 °C 13.0 °C 1019.9 hPa Calm   6.4 km/h 95 % 0.0 mm
03:16 13.8 °C 13.0 °C 1019.9 hPa SW 4.7 km/h 4.7 km/h 95 % 0.0 mm
03:21 13.8 °C 13.0 °C 1019.9 hPa WSW 5.8 km/h 5.8 km/h 95 % 0.0 mm
03:26 13.8 °C 13.0 °C 1019.9 hPa Calm   6.9 km/h 96 % 0.0 mm
03:31 13.8 °C 13.0 °C 1019.9 hPa Calm   6.9 km/h 96 % 0.0 mm
03:36 13.8 °C 13.0 °C 1019.9 hPa SW 4.0 km/h 6.4 km/h 96 % 0.0 mm
03:41 13.7 °C 13.0 °C 1019.9 hPa SW 4.0 km/h 5.8 km/h 95 % 0.0 mm
03:43 13.7 °C 13.0 °C 1019.9 hPa Calm   7.6 km/h 96 % 0.0 mm
03:48 13.6 °C 13.0 °C 1019.9 hPa Calm   7.6 km/h 95 % 0.0 mm
03:53 13.6 °C 13.0 °C 1019.9 hPa Calm   5.0 km/h 95 % 0.0 mm
03:58 13.7 °C 13.0 °C 1019.9 hPa Calm   6.9 km/h 96 % 0.0 mm
04:03 13.8 °C 13.0 °C 1020.9 hPa Calm   6.9 km/h 96 % 0.0 mm
04:08 14.0 °C 14.0 °C 1020.9 hPa West 4.3 km/h 5.5 km/h 96 % 0.0 mm
04:13 14.2 °C 14.0 °C 1020.9 hPa West 5.5 km/h 12.6 km/h 96 % 0.0 mm
04:18 14.3 °C 14.0 °C 1020.9 hPa West 6.9 km/h 12.6 km/h 96 % 0.0 mm
04:23 14.4 °C 14.0 °C 1020.9 hPa WSW 7.9 km/h 10.5 km/h 96 % 0.0 mm
04:28 14.5 °C 14.0 °C 1020.9 hPa WSW 9.7 km/h 15.8 km/h 97 % 0.0 mm
04:33 14.5 °C 14.0 °C 1019.9 hPa WSW 9.3 km/h 15.8 km/h 97 % 0.0 mm
04:38 14.6 °C 14.0 °C 1019.9 hPa SW 10.5 km/h 11.9 km/h 97 % 0.0 mm
04:43 14.6 °C 14.0 °C 1019.9 hPa WSW 7.9 km/h 10.5 km/h 97 % 0.0 mm
04:48 14.7 °C 14.0 °C 1019.9 hPa West 12.2 km/h 12.6 km/h 97 % 0.0 mm
04:53 14.7 °C 14.0 °C 1019.9 hPa West 6.1 km/h 12.6 km/h 97 % 0.0 mm
04:58 14.7 °C 14.0 °C 1019.9 hPa SW 6.4 km/h 12.2 km/h 96 % 0.0 mm
05:04 14.7 °C 14.0 °C 1019.9 hPa Calm   10.1 km/h 96 % 0.0 mm
05:09 14.8 °C 14.0 °C 1019.9 hPa WSW 9.0 km/h 14.0 km/h 97 % 0.0 mm
05:14 14.8 °C 14.0 °C 1019.9 hPa WSW 9.7 km/h 14.0 km/h 97 % 0.0 mm
05:19 14.9 °C 15.0 °C 1019.9 hPa West 11.6 km/h 11.6 km/h 97 % 0.0 mm
05:24 14.9 °C 15.0 °C 1019.9 hPa WSW 9.0 km/h 12.2 km/h 97 % 0.0 mm
05:29 14.9 °C 15.0 °C 1019.9 hPa West 6.4 km/h 11.9 km/h 97 % 0.0 mm
05:34 14.9 °C 15.0 °C 1019.9 hPa West 7.9 km/h 11.9 km/h 97 % 0.0 mm
05:39 14.9 °C 15.0 °C 1019.9 hPa WSW 9.7 km/h 11.9 km/h 97 % 0.0 mm
05:44 14.9 °C 15.0 °C 1019.9 hPa West 8.7 km/h 10.5 km/h 97 % 0.0 mm
05:49 14.9 °C 15.0 °C 1019.9 hPa Calm   10.5 km/h 97 % 0.0 mm
06:45 15.2 °C 15.0 °C 1020.9 hPa WSW 4.3 km/h 9.3 km/h 96 % 0.0 mm
06:50 15.3 °C 15.0 °C 1020.9 hPa West 4.3 km/h 9.3 km/h 96 % 0.0 mm
06:55 15.3 °C 15.0 °C 1020.9 hPa WSW 1.4 km/h 10.5 km/h 96 % 0.0 mm
07:00 15.3 °C 15.0 °C 1020.9 hPa WSW 5.8 km/h 10.5 km/h 96 % 0.0 mm
07:05 15.4 °C 15.0 °C 1020.9 hPa Calm   7.9 km/h 96 % 0.0 mm
07:10 15.4 °C 15.0 °C 1020.9 hPa WSW 2.6 km/h 8.7 km/h 96 % 0.0 mm
07:15 15.5 °C 15.0 °C 1020.9 hPa WSW 6.9 km/h 9.0 km/h 96 % 0.0 mm
07:20 15.5 °C 15.0 °C 1020.9 hPa Calm   9.0 km/h 96 % 0.0 mm
07:25 15.6 °C 15.0 °C 1020.9 hPa West 3.2 km/h 9.0 km/h 96 % 0.0 mm
07:30 15.6 °C 15.0 °C 1020.9 hPa Calm   9.0 km/h 96 % 0.0 mm
07:35 15.6 °C 15.0 °C 1020.9 hPa WSW 2.6 km/h 5.8 km/h 96 % 0.0 mm
07:40 15.7 °C 15.0 °C 1020.9 hPa West 2.6 km/h 9.7 km/h 96 % 0.0 mm
07:45 15.8 °C 15.0 °C 1020.9 hPa Calm   9.7 km/h 95 % 0.0 mm
07:50 15.9 °C 15.0 °C 1019.9 hPa Calm     95 % 0.0 mm
07:55 15.9 °C 15.0 °C 1019.9 hPa Calm   4.3 km/h 95 % 0.0 mm
08:00 16.0 °C 15.0 °C 1019.9 hPa Calm   4.3 km/h 95 % 0.0 mm
08:05 16.1 °C 15.0 °C 1020.9 hPa Calm   5.8 km/h 95 % 0.0 mm
08:10 16.1 °C 15.0 °C 1020.9 hPa Calm   5.8 km/h 95 % 0.0 mm
08:15 16.2 °C 16.0 °C 1020.9 hPa Calm     95 % 0.0 mm
08:20 16.3 °C 15.0 °C 1020.9 hPa Calm     94 % 0.0 mm
08:25 16.4 °C 15.0 °C 1020.9 hPa Calm     94 % 0.0 mm
08:31 16.6 °C 16.0 °C 1020.9 hPa Calm     94 % 0.0 mm
08:36 16.7 °C 16.0 °C 1019.9 hPa Calm     94 % 0.0 mm
08:41 16.8 °C 16.0 °C 1019.9 hPa SSW 5.8 km/h 6.9 km/h 94 % 0.0 mm
08:46 17.0 °C 16.0 °C 1020.9 hPa Calm   6.9 km/h 93 % 0.0 mm
08:51 17.0 °C 16.0 °C 1020.9 hPa Calm   4.0 km/h 93 % 0.0 mm
08:56 17.0 °C 16.0 °C 1020.9 hPa Calm   4.0 km/h 93 % 0.0 mm
09:01 17.1 °C 16.0 °C 1019.9 hPa Calm   3.5 km/h 92 % 0.0 mm
09:06 17.2 °C 16.0 °C 1019.9 hPa Calm   3.5 km/h 92 % 0.0 mm
09:11 17.3 °C 16.0 °C 1019.9 hPa Calm     92 % 0.0 mm
09:16 17.3 °C 16.0 °C 1019.9 hPa Calm     92 % 0.0 mm
09:21 17.3 °C 16.0 °C 1019.9 hPa SSE 4.3 km/h 6.9 km/h 92 % 0.0 mm
09:26 17.3 °C 16.0 °C 1019.9 hPa Calm   6.9 km/h 92 % 0.0 mm
09:31 17.4 °C 16.0 °C 1019.9 hPa Calm   4.7 km/h 92 % 0.0 mm
09:36 17.4 °C 16.0 °C 1019.9 hPa South 5.8 km/h 6.9 km/h 91 % 0.0 mm
09:41 17.4 °C 16.0 °C 1019.9 hPa Calm   6.9 km/h 91 % 0.0 mm
09:46 17.5 °C 16.0 °C 1020.9 hPa Calm   5.0 km/h 91 % 0.0 mm
09:51 17.5 °C 16.0 °C 1020.9 hPa Calm     91 % 0.0 mm
09:56 17.6 °C 16.0 °C 1020.9 hPa Calm   7.6 km/h 91 % 0.0 mm
10:01 17.6 °C 16.0 °C 1020.9 hPa SE 5.0 km/h 7.6 km/h 91 % 0.0 mm
10:06 17.7 °C 16.0 °C 1020.9 hPa South 7.6 km/h 10.5 km/h 90 % 0.0 mm
10:11 17.8 °C 16.0 °C 1020.9 hPa Calm   10.5 km/h 90 % 0.0 mm
10:16 17.9 °C 16.0 °C 1019.9 hPa SSW 1.4 km/h 9.3 km/h 90 % 0.0 mm
10:21 18.0 °C 16.0 °C 1019.9 hPa Calm   9.0 km/h 90 % 0.0 mm
10:26 18.2 °C 17.0 °C 1019.9 hPa Calm   5.8 km/h 89 % 0.0 mm
10:31 18.2 °C 17.0 °C 1019.9 hPa SW 4.0 km/h 9.0 km/h 89 % 0.0 mm
10:36 18.3 °C 17.0 °C 1019.9 hPa SSW 6.9 km/h 9.0 km/h 89 % 0.0 mm
10:41 18.3 °C 17.0 °C 1019.9 hPa South 5.8 km/h 6.9 km/h 89 % 0.0 mm
10:45 18.4 °C 17.0 °C 1019.9 hPa Calm   6.9 km/h 89 % 0.0 mm
10:50 18.6 °C 17.0 °C 1020.9 hPa Calm   7.9 km/h 88 % 0.0 mm
10:55 18.7 °C 17.0 °C 1020.9 hPa Calm   7.9 km/h 88 % 0.0 mm
11:00 18.9 °C 17.0 °C 1020.9 hPa Calm   6.4 km/h 88 % 0.0 mm
11:05 19.0 °C 17.0 °C 1019.9 hPa Calm   5.8 km/h 87 % 0.0 mm
11:10 19.2 °C 17.0 °C 1019.9 hPa South 4.0 km/h 5.5 km/h 87 % 0.0 mm
11:15 19.3 °C 17.0 °C 1019.9 hPa SSE 3.5 km/h 9.3 km/h 85 % 0.0 mm
11:20 19.6 °C 17.0 °C 1020.9 hPa South 7.2 km/h 9.3 km/h 85 % 0.0 mm
11:25 19.9 °C 18.0 °C 1020.9 hPa South 5.0 km/h 11.9 km/h 85 % 0.0 mm
11:30 20.5 °C 18.0 °C 1020.9 hPa SSW 6.1 km/h 11.9 km/h 82 % 0.0 mm
11:35 20.7 °C 17.0 °C 1020.9 hPa Calm   11.9 km/h 81 % 0.0 mm
11:40 21.2 °C 18.0 °C 1020.9 hPa SSE 4.0 km/h 6.9 km/h 80 % 0.0 mm
11:45 21.9 °C 19.0 °C 1020.9 hPa SSW 5.8 km/h 9.0 km/h 80 % 0.0 mm
11:50 22.3 °C 18.0 °C 1020.9 hPa Calm   9.0 km/h 78 % 0.0 mm
11:55 22.7 °C 18.0 °C 1020.9 hPa North 4.3 km/h 7.9 km/h 76 % 0.0 mm
12:00 23.3 °C 19.0 °C 1020.9 hPa NE 1.4 km/h 7.6 km/h 75 % 0.0 mm
12:05 23.5 °C 19.0 °C 1020.9 hPa Calm   7.6 km/h 72 % 0.0 mm
12:10 23.7 °C 18.0 °C 1020.9 hPa SSE 9.0 km/h 9.3 km/h 70 % 0.0 mm
12:16 23.6 °C 18.0 °C 1020.9 hPa Calm   9.3 km/h 70 % 0.0 mm
12:21 24.1 °C 18.0 °C 1020.9 hPa SSE 7.9 km/h 9.7 km/h 70 % 0.0 mm
12:26 23.8 °C 18.0 °C 1020.9 hPa SE 6.1 km/h 9.7 km/h 68 % 0.0 mm
12:31 24.4 °C 18.0 °C 1020.9 hPa SE 7.2 km/h 10.1 km/h 68 % 0.0 mm
12:36 24.4 °C 18.0 °C 1020.9 hPa SSE 6.9 km/h 10.1 km/h 67 % 0.0 mm
12:41 25.0 °C 19.0 °C 1020.9 hPa Calm   9.7 km/h 67 % 0.0 mm
12:46 25.4 °C 19.0 °C 1020.9 hPa Calm   9.7 km/h 66 % 0.0 mm
12:51 25.5 °C 18.0 °C 1020.9 hPa SSE 7.9 km/h 12.6 km/h 63 % 0.0 mm
12:56 25.6 °C 18.0 °C 1020.9 hPa Calm   12.6 km/h 62 % 0.0 mm
13:01 26.1 °C 19.0 °C 1019.9 hPa SSE 7.2 km/h 10.1 km/h 63 % 0.0 mm
13:06 26.5 °C 19.0 °C 1019.9 hPa SSE 9.3 km/h 10.5 km/h 61 % 0.0 mm
13:11 27.0 °C 19.0 °C 1019.9 hPa Calm   10.5 km/h 61 % 0.0 mm
13:16 26.6 °C 18.0 °C 1019.9 hPa SSW 2.1 km/h 10.5 km/h 59 % 0.0 mm
13:21 25.5 °C 17.0 °C 1019.9 hPa Calm   10.1 km/h 58 % 0.0 mm
13:26 25.9 °C 17.0 °C 1019.9 hPa Calm   2.6 km/h 58 % 0.0 mm
13:31 25.9 °C 17.0 °C 1019.9 hPa Calm   4.7 km/h 58 % 0.0 mm
13:36 25.4 °C 17.0 °C 1019.9 hPa Calm   4.7 km/h 58 % 0.0 mm
13:41 25.1 °C 16.0 °C 1019.9 hPa SSE 4.7 km/h 4.7 km/h 58 % 0.0 mm
13:46 25.1 °C 17.0 °C 1019.9 hPa Calm   4.7 km/h 59 % 0.0 mm
13:51 26.2 °C 18.0 °C 1019.9 hPa ESE 7.9 km/h 7.9 km/h 60 % 0.0 mm
13:56 25.4 °C 16.0 °C 1019.9 hPa SSW 10.5 km/h 10.5 km/h 57 % 0.0 mm
14:01 24.9 °C 16.0 °C 1019.9 hPa Calm   10.5 km/h 57 % 0.0 mm
14:06 24.6 °C 16.0 °C 1019.9 hPa Calm   10.5 km/h 59 % 0.0 mm
14:11 24.2 °C 16.0 °C 1019.9 hPa Calm   10.5 km/h 59 % 0.0 mm
14:16 24.0 °C 16.0 °C 1018.8 hPa South 1.8 km/h 5.5 km/h 59 % 0.0 mm
14:21 23.9 °C 16.0 °C 1018.8 hPa West 6.1 km/h 12.6 km/h 61 % 0.0 mm
14:26 23.9 °C 16.0 °C 1018.8 hPa SW 5.8 km/h 12.6 km/h 61 % 0.0 mm
14:32 24.1 °C 16.0 °C 1018.8 hPa Calm   7.2 km/h 61 % 0.0 mm
14:37 24.5 °C 17.0 °C 1018.8 hPa Calm   7.9 km/h 62 % 0.0 mm
14:42 25.9 °C 19.0 °C 1018.8 hPa SSE 1.4 km/h 7.9 km/h 63 % 0.0 mm
14:47 25.6 °C 18.0 °C 1019.9 hPa SSE 10.1 km/h 10.8 km/h 60 % 0.0 mm
14:52 25.3 °C 17.0 °C 1019.9 hPa SE 7.2 km/h 11.1 km/h 58 % 0.0 mm
14:57 25.3 °C 17.0 °C 1019.9 hPa Calm   11.1 km/h 59 % 0.0 mm
15:02 25.1 °C 16.0 °C 1018.8 hPa SW 6.9 km/h 12.6 km/h 57 % 0.0 mm
15:07 25.3 °C 17.0 °C 1018.8 hPa Calm   12.6 km/h 59 % 0.0 mm
15:12 25.5 °C 17.0 °C 1018.8 hPa SSW 2.6 km/h 6.9 km/h 59 % 0.0 mm
15:17 25.9 °C 18.0 °C 1018.8 hPa SSW 5.8 km/h 7.6 km/h 59 % 0.0 mm
15:19 25.8 °C 17.0 °C 1018.8 hPa South 5.8 km/h 7.6 km/h 57 % 0.0 mm
15:24 25.7 °C 16.0 °C 1018.8 hPa WSW 7.6 km/h 7.6 km/h 56 % 0.0 mm
15:29 25.6 °C 16.0 °C 1018.8 hPa West 9.0 km/h 9.0 km/h 55 % 0.0 mm
15:34 25.2 °C 15.0 °C 1018.8 hPa West 3.5 km/h 10.5 km/h 52 % 0.0 mm
15:39 25.2 °C 15.0 °C 1018.8 hPa Calm   10.5 km/h 53 % 0.0 mm
15:44 25.4 °C 16.0 °C 1018.8 hPa West 7.6 km/h 7.6 km/h 54 % 0.0 mm
15:49 25.7 °C 16.0 °C 1018.8 hPa Calm   8.7 km/h 56 % 0.0 mm
15:54 26.0 °C 16.0 °C 1018.8 hPa Calm   8.7 km/h 55 % 0.0 mm
15:59 26.2 °C 16.0 °C 1018.8 hPa Calm   6.4 km/h 53 % 0.0 mm
16:04 26.2 °C 16.0 °C 1018.8 hPa Calm   8.7 km/h 52 % 0.0 mm
16:10 26.8 °C 17.0 °C 1018.8 hPa South 6.1 km/h 8.7 km/h 53 % 0.0 mm
16:15 27.2 °C 16.0 °C 1018.8 hPa South 5.8 km/h 9.0 km/h 50 % 0.0 mm
16:20 27.4 °C 17.0 °C 1018.2 hPa Calm   9.0 km/h 51 % 0.0 mm
16:25 27.3 °C 17.0 °C 1018.2 hPa Calm   5.8 km/h 52 % 0.0 mm
16:30 27.2 °C 16.0 °C 1018.2 hPa WNW 5.0 km/h 6.4 km/h 49 % 0.0 mm
16:35 26.3 °C 15.0 °C 1018.8 hPa SW 4.3 km/h 6.9 km/h 48 % 0.0 mm
16:40 26.0 °C 15.0 °C 1018.8 hPa Calm   6.9 km/h 49 % 0.0 mm
16:45 25.8 °C 15.0 °C 1018.8 hPa Calm   4.3 km/h 51 % 0.0 mm
16:50 27.3 °C 17.0 °C 1018.8 hPa SSE 1.4 km/h 1.4 km/h 53 % 0.0 mm
16:55 27.1 °C 16.0 °C 1018.8 hPa West 9.3 km/h 13.7 km/h 49 % 0.0 mm
17:00 27.6 °C 17.0 °C 1018.8 hPa West 8.7 km/h 13.7 km/h 50 % 0.0 mm
17:05 27.7 °C 15.0 °C 1018.8 hPa WNW 5.0 km/h 11.9 km/h 46 % 0.0 mm
17:10 27.7 °C 16.0 °C 1018.8 hPa Calm   11.9 km/h 49 % 0.0 mm
17:15 28.6 °C 16.0 °C 1018.8 hPa Calm   5.0 km/h 46 % 0.0 mm
17:20 28.4 °C 16.0 °C 1018.8 hPa Calm   9.3 km/h 46 % 0.0 mm
17:25 28.8 °C 16.0 °C 1018.8 hPa West 6.4 km/h 9.3 km/h 46 % 0.0 mm
17:30 27.6 °C 15.0 °C 1018.8 hPa WSW 7.9 km/h 11.9 km/h 45 % 0.0 mm
17:35 26.6 °C 14.0 °C 1018.8 hPa Calm   11.9 km/h 46 % 0.0 mm
17:41 27.2 °C 16.0 °C 1018.8 hPa Calm   5.0 km/h 49 % 0.0 mm
17:45 28.0 °C 16.0 °C 1018.8 hPa SSW 5.0 km/h 6.9 km/h 48 % 0.0 mm
17:51 27.9 °C 15.0 °C 1018.8 hPa Calm   9.0 km/h 45 % 0.0 mm
17:56 27.7 °C 16.0 °C 1018.8 hPa West 4.0 km/h 9.0 km/h 47 % 0.0 mm
18:01 27.8 °C 16.0 °C 1018.8 hPa SSW 6.9 km/h 10.5 km/h 47 % 0.0 mm
18:06 27.4 °C 15.0 °C 1018.8 hPa North 4.3 km/h 10.5 km/h 47 % 0.0 mm
18:11 27.2 °C 15.0 °C 1018.8 hPa North 5.8 km/h 10.1 km/h 47 % 0.0 mm
18:16 26.9 °C 16.0 °C 1018.8 hPa Calm   6.9 km/h 49 % 0.0 mm
18:21 26.7 °C 15.0 °C 1018.8 hPa WNW 4.3 km/h 5.8 km/h 49 % 0.0 mm
18:26 27.0 °C 16.0 °C 1018.8 hPa West 4.3 km/h 5.8 km/h 49 % 0.0 mm
18:31 27.1 °C 16.0 °C 1018.8 hPa Calm   5.0 km/h 49 % 0.0 mm
18:36 26.6 °C 15.0 °C 1018.8 hPa Calm   4.7 km/h 49 % 0.0 mm
18:41 26.4 °C 15.0 °C 1018.8 hPa Calm   5.8 km/h 49 % 0.0 mm
18:46 26.2 °C 15.0 °C 1018.8 hPa Calm   5.8 km/h 50 % 0.0 mm
18:51 26.1 °C 15.0 °C 1018.8 hPa NNW 4.7 km/h 6.9 km/h 51 % 0.0 mm
18:56 25.6 °C 15.0 °C 1018.8 hPa Calm   7.6 km/h 52 % 0.0 mm
19:01 25.2 °C 16.0 °C 1018.2 hPa Calm   7.9 km/h 54 % 0.0 mm
19:06 24.9 °C 16.0 °C 1018.2 hPa North 8.7 km/h 10.1 km/h 58 % 0.0 mm
19:11 24.3 °C 16.0 °C 1018.2 hPa WNW 10.5 km/h 11.9 km/h 61 % 0.0 mm
19:16 24.1 °C 16.0 °C 1018.8 hPa NNW 9.0 km/h 11.9 km/h 61 % 0.0 mm
19:21 23.8 °C 16.0 °C 1018.8 hPa NNW 8.7 km/h 11.9 km/h 63 % 0.0 mm
19:26 23.5 °C 17.0 °C 1018.8 hPa North 6.9 km/h 11.9 km/h 64 % 0.0 mm
19:31 23.5 °C 17.0 °C 1018.8 hPa North 7.9 km/h 11.9 km/h 64 % 0.0 mm
19:36 23.5 °C 17.0 °C 1018.8 hPa NNW 9.0 km/h 9.0 km/h 65 % 0.0 mm
19:41 23.6 °C 17.0 °C 1018.8 hPa North 3.5 km/h 9.0 km/h 66 % 0.0 mm
19:46 23.5 °C 17.0 °C 1018.8 hPa NE 8.7 km/h 9.3 km/h 65 % 0.0 mm
19:51 23.4 °C 17.0 °C 1018.8 hPa NW 9.7 km/h 11.9 km/h 65 % 0.0 mm
19:56 23.5 °C 17.0 °C 1018.8 hPa NNW 9.0 km/h 11.9 km/h 64 % 0.0 mm
20:02 23.3 °C 17.0 °C 1018.2 hPa NNW 5.8 km/h 11.9 km/h 65 % 0.0 mm
20:07 23.4 °C 16.0 °C 1018.2 hPa North 3.2 km/h 11.9 km/h 64 % 0.0 mm
20:12 23.2 °C 17.0 °C 1018.2 hPa North 5.0 km/h 12.2 km/h 65 % 0.0 mm
20:17 23.0 °C 16.0 °C 1018.2 hPa North 5.0 km/h 13.7 km/h 65 % 0.0 mm
20:22 22.8 °C 16.0 °C 1018.2 hPa NNE 10.1 km/h 13.7 km/h 65 % 0.0 mm
20:27 22.9 °C 16.0 °C 1018.2 hPa NNE 5.0 km/h 10.5 km/h 66 % 0.0 mm
20:32 22.9 °C 16.0 °C 1018.2 hPa North 4.3 km/h 9.7 km/h 66 % 0.0 mm
20:37 22.7 °C 16.0 °C 1018.2 hPa North 9.0 km/h 10.5 km/h 66 % 0.0 mm
20:42 22.5 °C 16.0 °C 1018.2 hPa North 4.7 km/h 10.5 km/h 66 % 0.0 mm
20:47 22.3 °C 16.0 °C 1018.2 hPa NE 8.7 km/h 11.9 km/h 67 % 0.0 mm
20:52 22.1 °C 16.0 °C 1018.2 hPa NNE 8.7 km/h 11.9 km/h 67 % 0.0 mm
20:57 21.8 °C 16.0 °C 1018.2 hPa NNE 5.0 km/h 10.5 km/h 68 % 0.0 mm
21:02 21.5 °C 16.0 °C 1018.2 hPa NE 4.3 km/h 9.3 km/h 68 % 0.0 mm
21:07 21.4 °C 15.0 °C 1018.2 hPa Calm   9.3 km/h 69 % 0.0 mm
21:12 21.1 °C 15.0 °C 1018.2 hPa Calm   7.9 km/h 69 % 0.0 mm
21:17 21.0 °C 15.0 °C 1018.2 hPa North 5.0 km/h 7.9 km/h 70 % 0.0 mm
21:22 20.8 °C 15.0 °C 1018.2 hPa NNE 6.4 km/h 7.2 km/h 71 % 0.0 mm
21:27 20.7 °C 15.0 °C 1018.2 hPa Calm   7.2 km/h 71 % 0.0 mm
21:32 20.4 °C 15.0 °C 1018.2 hPa Calm   6.4 km/h 72 % 0.0 mm
21:37 20.1 °C 15.0 °C 1018.2 hPa Calm     72 % 0.0 mm
21:42 19.9 °C 15.0 °C 1018.2 hPa Calm   5.8 km/h 73 % 0.0 mm
21:47 19.7 °C 15.0 °C 1018.2 hPa Calm   6.1 km/h 74 % 0.0 mm
21:52 19.5 °C 15.0 °C 1018.2 hPa Calm   6.1 km/h 75 % 0.0 mm
21:58 19.3 °C 15.0 °C 1018.2 hPa Calm   1.4 km/h 76 % 0.0 mm
22:03 19.0 °C 15.0 °C 1018.8 hPa Calm   2.1 km/h 77 % 0.0 mm
22:08 18.8 °C 15.0 °C 1018.8 hPa Calm   2.1 km/h 77 % 0.0 mm
22:09 18.8 °C 15.0 °C 1018.8 hPa Calm   2.1 km/h 77 % 0.0 mm
22:14 18.6 °C 15.0 °C 1018.8 hPa Calm   2.1 km/h 78 % 0.0 mm
22:19 18.4 °C 15.0 °C 1018.8 hPa Calm     79 % 0.0 mm
22:24 18.2 °C 15.0 °C 1018.8 hPa Calm     79 % 0.0 mm
22:29 18.0 °C 15.0 °C 1018.8 hPa Calm   4.0 km/h 80 % 0.0 mm
22:34 17.9 °C 15.0 °C 1018.8 hPa Calm   4.0 km/h 80 % 0.0 mm
22:39 17.7 °C 14.0 °C 1018.8 hPa Calm   1.4 km/h 81 % 0.0 mm
22:44 17.5 °C 14.0 °C 1018.8 hPa Calm     81 % 0.0 mm
22:50 17.5 °C 14.0 °C 1018.8 hPa Calm     81 % 0.0 mm
22:55 17.2 °C 14.0 °C 1018.8 hPa Calm     82 % 0.0 mm
23:00 17.0 °C 14.0 °C 1018.8 hPa Calm     82 % 0.0 mm
23:05 16.9 °C 14.0 °C 1018.8 hPa Calm     83 % 0.0 mm
23:10 16.7 °C 14.0 °C 1018.8 hPa Calm     84 % 0.0 mm
23:15 16.6 °C 14.0 °C 1018.8 hPa Calm     84 % 0.0 mm
23:20 16.5 °C 14.0 °C 1018.2 hPa Calm     84 % 0.0 mm
23:25 16.4 °C 14.0 °C 1018.2 hPa Calm     85 % 0.0 mm
23:30 16.4 °C 14.0 °C 1018.2 hPa Calm     86 % 0.0 mm
23:35 16.4 °C 14.0 °C 1018.8 hPa Calm     86 % 0.0 mm
23:40 16.3 °C 14.0 °C 1018.8 hPa Calm     86 % 0.0 mm
23:45 16.2 °C 14.0 °C 1018.8 hPa Calm     86 % 0.0 mm
23:50 16.1 °C 14.0 °C 1018.8 hPa Calm     87 % 0.0 mm
23:55 16.0 °C 14.0 °C 1018.8 hPa Calm     87 % 0.0 mm
Le Gheer Warneton
Courtoisie de Weather Underground - 2.25 mb

Mise a jour : 16-12-17 12:09:11
Généré par Cumulus 1.9.4 (1099)